Hourly Data Report for July 11, 2009

PITT MEADOWS CS
BRITISH COLUMBIA

49°12'29.964" N
122°41'24.076" W
5.00 m
1106178
71775
WMM

Download Data

Hourly Data (July 2009)
Hourly Data Report for July 11, 2009
TIME
LST
Temp Definition
°C
Dew Point Definition
°C
Rel Hum Definition
%
Precip. Amount Definition
mm

Wind Dir Definition
10's deg

Wind Spd Definition
km/h
Visibility Definition
km
Stn Press Definition
kPa
Hmdx Definition


Wind Chill Definition


Weather Definition


00:00 14.5 13.6 94     0   101.64     LegendNANA
01:00 13.6 12.8 95     0   101.64     LegendNANA
02:00 13.0 12.6 97     0   101.66     LegendNANA
03:00 12.0 11.4 96     0   101.65     LegendNANA
04:00 12.3 11.5 95     0   101.66     LegendNANA
05:00 12.0 11.6 97     0   101.67     LegendNANA
06:00 15.0 13.6 91     0   101.65     LegendNANA
07:00 16.9 14.2 84   20 2   101.65     LegendNANA
08:00 19.8 13.5 67   28 4   101.63     LegendNANA
09:00 22.5 11.9 51   28 4   101.60 25   LegendNANA
10:00 25.4 13.0 46   27 7   101.55 28   LegendNANA
11:00 26.6 12.8 42   26 6   101.50 29   LegendNANA
12:00 28.4 13.0 39   26 7   101.46 31   LegendNANA
13:00 29.3 13.6 38   27 11   101.41 32   LegendNANA
14:00 30.1 12.7 34   27 11   101.36 33   LegendNANA
15:00 30.4 11.4 31   28 13   101.28 32   LegendNANA
16:00 30.4 10.9 30   27 13   101.22 32   LegendNANA
17:00 31.2 6.2 21   29 11   101.18 31   LegendNANA
18:00 29.8 10.1 29   26 6   101.16 31   LegendNANA
19:00 24.6 16.9 62   20 9   101.17 30   LegendNANA
20:00 22.5 16.9 71   14 2   101.18 28   LegendNANA
21:00 19.5 16.0 80   16 4   101.23     LegendNANA
22:00 19.9 15.2 74   14 6   101.31     LegendNANA
23:00 18.1 14.7 81   9 4   101.39     LegendNANA

Notes on Data Quality.

Legend

  • E = Estimated
  • M = Missing
  • NA = Not Available*
  • [empty] = Indicates an unobserved value
Date modified: